W1WRA Weather Reports


time (UTC)temp
C
wind
direction
speed
KPH
gust
KPH
rain 1hr
cm
rain 24hr
cm
rain mn
cm
humidity
%
barometer
mb
20260504213516 21 288 1.6 4.8 0.00 0.00 0.00 35 1006.0
20260504212517 21 237 1.6 6.4 0.00 0.00 0.00 34 1006.0
20260504211537 21 240 1.6 4.8 0.00 0.00 0.00 34 1006.0
20260504210517 21 233 3.2 4.8 0.00 0.00 0.00 33 1006.0
20260504205517 21 207 1.6 6.4 0.00 0.00 0.00 33 1006.0
20260504204537 21 232 3.2 6.4 0.00 0.00 0.00 34 1006.0
20260504203517 21 275 3.2 8.0 0.00 0.00 0.00 33 1006.0
20260504202517 21 268 1.6 6.4 0.00 0.00 0.00 34 1006.0
20260504201518 21 179 1.6 4.8 0.00 0.00 0.00 34 1006.0
20260504200517 21 264 1.6 4.8 0.00 0.00 0.00 33 1006.0
20260504195518 21 233 3.2 9.7 0.00 0.00 0.00 34 1006.0
20260504194538 21 241 3.2 9.7 0.00 0.00 0.00 34 1006.1
20260504193538 20 261 1.6 6.4 0.00 0.00 0.00 34 1006.1
20260504192515 20 277 3.2 9.7 0.00 0.00 0.00 34 1006.2
20260504191515 20 214 1.6 4.8 0.00 0.00 0.00 34 1006.2
20260504190516 20 236 3.2 6.4 0.00 0.00 0.00 34 1006.3
20260504185516 20 243 3.2 8.0 0.00 0.00 0.00 34 1006.3
20260504184516 20 224 3.2 4.8 0.00 0.00 0.00 33 1006.4
20260504183516 21 242 1.6 4.8 0.00 0.00 0.00 33 1006.5
20260504182516 21 270 3.2 8.0 0.00 0.00 0.00 32 1006.5
20260504181516 21 239 3.2 6.4 0.00 0.00 0.00 33 1006.5
20260504180516 21 254 3.2 9.7 0.00 0.00 0.00 32 1006.6
20260504175516 22 219 3.2 8.0 0.00 0.00 0.00 31 1006.6
20260504174517 22 250 3.2 6.4 0.00 0.00 0.00 31 1006.5
20260504173517 21 249 3.2 9.7 0.00 0.00 0.00 32 1006.6
20260504172517 21 285 3.2 9.7 0.00 0.00 0.00 31 1006.7
20260504171517 21 259 3.2 6.4 0.00 0.00 0.00 33 1006.8
20260504170517 21 221 3.2 6.4 0.00 0.00 0.00 33 1006.9
20260504150516 18 234 4.8 11.3 0.00 0.00 0.00 36 1007.8
20260504140517 16 326 0.0 4.8 0.00 0.00 0.00 42 1008.7
20260504130518 12 228 1.6 3.2 0.00 0.00 0.00 51 1009.2
20260504110519 4 202 0.0 1.6 0.00 0.00 0.00 82 1009.6
20260504100520 3 0.0 0.0 0.00 0.00 0.00 85 1009.6
20260504081521 4 0.0 0.0 0.00 0.00 0.00 84 1009.7
20260504080521 4 243 0.0 1.6 0.00 0.00 0.00 84 1009.6
20260504050516 1 0.0 0.0 0.00 0.00 0.00 87 1009.6
20260504045515 1 103 0.0 0.0 0.00 0.00 0.00 88 1009.7
20260504044516 1 232 0.0 0.0 0.00 0.00 0.00 88 1009.7
20260504043516 1 0.0 0.0 0.00 0.00 0.00 88 1009.7
20260504042516 1 0.0 0.0 0.00 0.00 0.00 87 1009.7
20260504041516 1 325 0.0 1.6 0.00 0.00 0.00 86 1009.6
20260504040516 1 0.0 0.0 0.00 0.00 0.00 87 1009.6
20260504035516 1 0.0 0.0 0.00 0.00 0.00 86 1009.6
20260504034516 1 0.0 0.0 0.00 0.00 0.00 86 1009.5
20260504033516 1 21 0.0 1.6 0.00 0.00 0.00 84 1009.5
20260504032517 1 0.0 0.0 0.00 0.00 0.00 83 1009.4
20260504031537 1 0.0 0.0 0.00 0.00 0.00 83 1009.4
20260504030517 1 0.0 0.0 0.00 0.00 0.00 82 1009.4
20260504025517 1 0.0 0.0 0.00 0.00 0.00 82 1009.4
20260504024517 1 16 0.0 1.6 0.00 0.00 0.00 82 1009.4
20260504023517 1 0.0 0.0 0.00 0.00 0.00 82 1009.4
20260504022518 1 44 0.0 1.6 0.00 0.00 0.00 82 1009.4
20260504021515 2 29 0.0 1.6 0.00 0.00 0.00 81 1009.4
20260504020538 2 0.0 0.0 0.00 0.00 0.00 80 1009.3
20260504015518 2 28 0.0 1.6 0.00 0.00 0.00 79 1009.2
20260504014535 2 33 0.0 1.6 0.00 0.00 0.00 78 1009.2
20260504013515 2 343 0.0 1.6 0.00 0.00 0.00 77 1009.1
20260504012515 3 0.0 0.0 0.00 0.00 0.00 76 1009.1
20260504011515 3 21 0.0 0.0 0.00 0.00 0.00 75 1008.9
20260504010516 3 0.0 0.0 0.00 0.00 0.00 73 1008.8
20260504005516 3 28 0.0 3.2 0.00 0.00 0.00 72 1008.7
20260504004516 4 37 0.0 3.2 0.00 0.00 0.00 73 1008.6
20260504003516 4 350 0.0 0.0 0.00 0.00 0.00 72 1008.5
20260504002516 5 35 0.0 1.6 0.00 0.00 0.00 71 1008.4
20260504001516 5 40 0.0 3.2 0.00 0.00 0.00 68 1008.3
20260504000537 6 30 0.0 1.6 0.00 0.00 0.00 68 1008.2
20260503235517 6 21 0.0 1.6 0.00 0.00 0.00 66 1008.1
20260503234537 7 344 0.0 1.6 0.00 0.00 0.00 62 1008.0
20260503233517 7 42 0.0 3.2 0.00 0.00 0.00 61 1007.9
20260503232517 8 35 0.0 3.2 0.00 0.00 0.00 53 1007.8
20260503231517 8 358 0.0 1.6 0.00 0.00 0.00 46 1007.7
20260503230517 9 234 1.6 4.8 0.00 0.00 0.00 47 1007.7
20260503225517 9 342 1.6 6.4 0.00 0.00 0.00 46 1007.5
20260503224518 9 330 1.6 6.4 0.00 0.00 0.00 44 1007.4
20260503223635 9 3 3.2 8.0 0.00 0.00 0.00 44 1007.3
20260503222518 10 339 1.6 6.4 0.00 0.00 0.00 43 1007.3
20260503221519 10 229 1.6 6.4 0.00 0.05 0.00 43 1007.2
20260503220516 10 289 3.2 8.0 0.00 0.05 0.00 43 1007.1
20260503215516 10 249 1.6 6.4 0.00 0.08 0.00 43 1007.0
20260503214515 10 5 4.8 11.3 0.00 0.08 0.00 43 1007.0